HI8EES-1 Weather Reports


Display with metric or nautical units.
time (UTC)temp
F
wind
direction
speed
MPH
gust
MPH
rain 1hr
in
rain 24hr
in
rain mn
in
humidity
%
barometer
mb
20260505041239 73 150 8.0 0.0 0.00 0.00 0.00 78 1016.0
20260505040236 74 160 5.0 0.0 0.00 0.00 0.00 78 1016.0
20260505035234 75 160 5.0 0.0 0.00 0.00 0.00 78 1016.0
20260505034232 76 160 5.0 0.0 0.00 0.00 0.00 78 1016.0
20260505033231 77 160 5.0 0.0 0.00 0.00 0.00 78 1016.0
20260505032229 78 160 5.0 0.0 0.00 0.00 0.00 78 1016.0
20260505031226 79 160 5.0 0.0 0.00 0.00 0.00 78 1016.0
20260505030224 80 0 0.0 0.0 0.00 0.00 0.00 78 1016.0
20260505025222 72 160 8.0 0.0 0.00 0.00 0.00 78 1016.0
20260505024221 73 160 8.0 0.0 0.00 0.00 0.00 78 1016.0
20260505023220 74 160 8.0 0.0 0.00 0.00 0.00 78 1016.0
20260505022218 75 160 8.0 0.0 0.00 0.00 0.00 78 1016.0
20260505021217 76 160 8.0 0.0 0.00 0.00 0.00 78 1016.0
20260505020215 77 160 8.0 0.0 0.00 0.00 0.00 78 1016.0
20260505015214 78 160 8.0 0.0 0.00 0.00 0.00 78 1016.0
20260505014213 79 160 8.0 0.0 0.00 0.00 0.00 78 1016.0
20260505013211 80 160 8.0 0.0 0.00 0.00 0.00 78 1016.0
20260505012210 72 160 8.0 0.0 0.00 0.00 0.00 69 1015.0
20260505011207 73 160 8.0 0.0 0.00 0.00 0.00 69 1015.0
20260505010205 74 180 8.0 0.0 0.00 0.00 0.00 69 1015.0
20260505005202 75 180 8.0 0.0 0.00 0.00 0.00 69 1015.0
20260505004201 76 180 8.0 0.0 0.00 0.00 0.00 69 1015.0
20260505003159 77 180 8.0 0.0 0.00 0.00 0.00 69 1015.0
20260505002156 78 180 8.0 0.0 0.00 0.00 0.00 69 1015.0
20260505001155 79 160 8.0 0.0 0.00 0.00 0.00 69 1015.0
20260505000153 80 160 9.0 0.0 0.00 0.00 0.00 69 1015.0
20260504235152 81 160 9.0 0.0 0.00 0.00 0.00 69 1015.0
20260504234151 82 160 9.0 0.0 0.00 0.00 0.00 69 1015.0
20260504233149 73 170 14.0 0.0 0.00 0.00 0.00 70 1015.0
20260504232148 74 170 14.0 0.0 0.00 0.00 0.00 70 1015.0
20260504231145 75 170 14.0 0.0 0.00 0.00 0.00 70 1014.0
20260504230144 76 170 14.0 0.0 0.00 0.00 0.00 70 1014.0
20260504225142 77 170 14.0 0.0 0.00 0.00 0.00 70 1014.0
20260504224140 78 170 14.0 0.0 0.00 0.00 0.00 70 1014.0
20260504223137 79 170 14.0 0.0 0.00 0.00 0.00 70 1014.0
20260504222136 80 170 14.0 0.0 0.00 0.00 0.00 70 1014.0
20260504221135 81 170 14.0 0.0 0.00 0.00 0.00 70 1014.0
20260504220133 82 170 14.0 0.0 0.00 0.00 0.00 70 1014.0
20260504215131 83 170 14.0 0.0 0.00 0.00 0.00 70 1014.0
20260504214130 76 170 14.0 0.0 0.00 0.00 0.00 62 1014.0
20260504213129 77 170 14.0 0.0 0.00 0.00 0.00 62 1014.0
20260504212127 78 170 14.0 0.0 0.00 0.00 0.00 62 1014.0
20260504211114 79 170 14.0 0.0 0.00 0.00 0.00 62 1014.0
20260504210113 80 170 14.0 0.0 0.00 0.00 0.00 62 1013.0
20260504205106 81 160 11.0 0.0 0.00 0.00 0.00 62 1013.0
20260504204105 82 160 11.0 0.0 0.00 0.00 0.00 62 1013.0
20260504203103 83 160 11.0 0.0 0.00 0.00 0.00 62 1013.0
20260504202100 84 160 11.0 0.0 0.00 0.00 0.00 62 1014.0
20260504201059 85 160 11.0 0.0 0.00 0.00 0.00 62 1014.0
20260504200058 78 160 14.0 0.0 0.00 0.00 0.00 66 1014.0
20260504195056 79 160 14.0 0.0 0.00 0.00 0.00 66 1014.0
20260504194055 80 160 14.0 0.0 0.00 0.00 0.00 66 1014.0
20260504193053 81 160 14.0 0.0 0.00 0.00 0.00 66 1014.0
20260504192052 82 160 14.0 0.0 0.00 0.00 0.00 66 1014.0
20260504191051 83 160 14.0 0.0 0.00 0.00 0.00 66 1015.0
20260504190049 84 150 13.0 0.0 0.00 0.00 0.00 66 1015.0
20260504185048 85 150 13.0 0.0 0.00 0.00 0.00 66 1015.0
20260504184046 78 150 13.0 0.0 0.00 0.00 0.00 66 1015.0
20260504183044 79 150 13.0 0.0 0.00 0.00 0.00 66 1015.0
20260504182042 80 150 13.0 0.0 0.00 0.00 0.00 66 1015.0
20260504181040 81 150 13.0 0.0 0.00 0.00 0.00 66 1015.0
20260504180039 82 120 13.0 0.0 0.00 0.00 0.00 66 1015.0
20260504175038 83 120 13.0 0.0 0.00 0.00 0.00 66 1015.0
20260504174035 84 120 13.0 0.0 0.00 0.00 0.00 66 1015.0
20260504173034 85 120 13.0 0.0 0.00 0.00 0.00 66 1015.0
20260504172032 78 120 13.0 0.0 0.00 0.00 0.00 66 1016.0
20260504171031 79 120 13.0 0.0 0.00 0.00 0.00 66 1016.0
20260504151012 83 130 11.0 0.0 0.00 0.00 0.00 65 1016.0
20260504141001 80 130 13.0 0.0 0.00 0.00 0.00 69 1016.0
20260504081909 73 0 0.0 0.0 0.00 0.00 0.00 94 1015.0
20260504080908 71 0 0.0 0.0 0.00 0.00 0.00 88 1015.0
20260504045842 71 130 4.0 0.0 0.00 0.00 0.00 78 1016.0